JAF889 EDDS-EBBR

Flight info

Callsign JAF889
Flight time 0h 51m
Altitude 22000
Route VESID4B VESID Y127 TUDGA Z738 NOKDI Z104 GESLO N852 LNO
Aircraft B38M/M-SDE1FGHILORVWXY/HB1

Departure

Time 2026-05-07 20:30
Airport Stuttgart Airport (EDDS)

Arrival

Time 2026-05-07 21:21
Airport Brussels Airport (EBBR)
Time Latitude Longitude Altitude Speed Heading
2026-05-07 19:58 48.69107 9.21147 1286 ft 0 kts
2026-05-07 20:11 48.69098 9.21147 1287 ft 2 kts
2026-05-07 20:11 48.69085 9.21146 1287 ft 2 kts
2026-05-07 20:11 48.69069 9.21144 1288 ft 2 kts 10°
2026-05-07 20:12 48.69054 9.21137 1287 ft 2 kts 33°
2026-05-07 20:12 48.69043 9.21119 1287 ft 2 kts 71°
2026-05-07 20:12 48.69042 9.21112 1286 ft 0 kts 73°
2026-05-07 20:15 48.69042 9.21114 1286 ft 1 kts 73°
2026-05-07 20:15 48.69057 9.21189 1286 ft 14 kts 73°
2026-05-07 20:15 48.69092 9.21366 1286 ft 19 kts 73°
2026-05-07 20:16 48.69130 9.21563 1286 ft 21 kts 74°
2026-05-07 20:16 48.69174 9.21805 1286 ft 25 kts 75°
2026-05-07 20:16 48.69221 9.22049 1286 ft 23 kts 72°
2026-05-07 20:16 48.69264 9.22272 1286 ft 21 kts 73°
2026-05-07 20:17 48.69302 9.22480 1286 ft 20 kts 76°
2026-05-07 20:17 48.69326 9.22610 1286 ft 19 kts 74°
2026-05-07 20:17 48.69365 9.22811 1286 ft 21 kts 73°
2026-05-07 20:17 48.69411 9.23050 1286 ft 27 kts 75°
2026-05-07 20:18 48.69465 9.23334 1286 ft 29 kts 74°
2026-05-07 20:18 48.69522 9.23629 1286 ft 29 kts 73°
2026-05-07 20:18 48.69578 9.23927 1286 ft 30 kts 74°
2026-05-07 20:18 48.69600 9.24193 1286 ft 22 kts 112°
2026-05-07 20:19 48.69503 9.24315 1286 ft 9 kts 164°
2026-05-07 20:19 48.69498 9.24317 1286 ft 0 kts 164°
2026-05-07 20:28 48.69497 9.24317 1286 ft 1 kts 164°
2026-05-07 20:28 48.69486 9.24320 1286 ft 4 kts 171°
2026-05-07 20:28 48.69399 9.24285 1286 ft 18 kts 223°
2026-05-07 20:28 48.69347 9.24103 1286 ft 11 kts 253°
2026-05-07 20:29 48.69344 9.24091 1286 ft 0 kts 253°
2026-05-07 20:29 48.69343 9.24087 1286 ft 0 kts 253°
2026-05-07 20:29 48.69306 9.23885 1286 ft 54 kts 254°
2026-05-07 20:30 48.69138 9.23004 1286 ft 117 kts 254°
2026-05-07 20:30 48.68863 9.21570 1287 ft 165 kts 254°
2026-05-07 20:30 48.68565 9.19777 1678 ft 176 kts 260°
2026-05-07 20:30 48.68399 9.17893 1988 ft 187 kts 263°
2026-05-07 20:31 48.68203 9.16010 2579 ft 172 kts 255°
2026-05-07 20:31 48.67698 9.14385 2830 ft 177 kts 237°
2026-05-07 20:31 48.67156 9.12652 2815 ft 187 kts 251°
2026-05-07 20:31 48.67053 9.10698 2821 ft 192 kts 288°
2026-05-07 20:32 48.67741 9.08959 2835 ft 196 kts 309°
2026-05-07 20:32 48.68632 9.07369 2851 ft 199 kts 314°
2026-05-07 20:32 48.69792 9.06280 2874 ft 199 kts 342°
2026-05-07 20:32 48.71114 9.05627 2888 ft 201 kts 343°
2026-05-07 20:33 48.72453 9.04971 2918 ft 203 kts 342°
2026-05-07 20:33 48.73795 9.04289 2975 ft 201 kts 342°
2026-05-07 20:33 48.75094 9.03623 3207 ft 193 kts 341°
2026-05-07 20:33 48.76351 9.02980 3333 ft 192 kts 342°
2026-05-07 20:34 48.77617 9.02334 3344 ft 197 kts 341°
2026-05-07 20:34 48.78921 9.01663 3347 ft 200 kts 340°
2026-05-07 20:34 48.80211 9.00832 3318 ft 208 kts 340°
2026-05-07 20:34 48.81670 9.00038 3414 ft 235 kts 340°
2026-05-07 20:35 48.83267 8.99138 3730 ft 254 kts 339°
2026-05-07 20:35 48.84961 8.98132 4265 ft 262 kts 338°
2026-05-07 20:35 48.86676 8.97110 4929 ft 266 kts 338°
2026-05-07 20:35 48.88416 8.96085 5577 ft 270 kts 338°
2026-05-07 20:36 48.90174 8.95051 6252 ft 272 kts 338°
2026-05-07 20:36 48.91945 8.94006 6896 ft 274 kts 337°
2026-05-07 20:36 48.93734 8.92948 7528 ft 277 kts 337°
2026-05-07 20:36 48.95540 8.91879 8155 ft 280 kts 337°
2026-05-07 20:37 48.97368 8.90795 8788 ft 283 kts 336°
2026-05-07 20:37 48.99212 8.89692 9413 ft 286 kts 336°
2026-05-07 20:37 49.01053 8.88590 10030 ft 290 kts 336°
2026-05-07 20:37 49.02947 8.87458 10520 ft 296 kts 337°
2026-05-07 20:38 49.04905 8.86287 10840 ft 309 kts 337°
2026-05-07 20:38 49.06950 8.85061 11111 ft 323 kts 337°
2026-05-07 20:38 49.09073 8.83790 11522 ft 331 kts 337°
2026-05-07 20:38 49.11235 8.82494 12010 ft 337 kts 337°
2026-05-07 20:39 49.13434 8.81174 12542 ft 341 kts 337°
2026-05-07 20:39 49.15662 8.79875 13085 ft 345 kts 342°
2026-05-07 20:39 49.18056 8.79450 13647 ft 350 kts
2026-05-07 20:39 49.20493 8.79723 14164 ft 353 kts
2026-05-07 20:40 49.22949 8.80131 14662 ft 356 kts
2026-05-07 20:40 49.25427 8.80517 15158 ft 359 kts
2026-05-07 20:40 49.27921 8.80840 15649 ft 361 kts
2026-05-07 20:40 49.30437 8.81158 16136 ft 364 kts
2026-05-07 20:41 49.32966 8.81505 16621 ft 367 kts
2026-05-07 20:41 49.35515 8.81864 17105 ft 369 kts
2026-05-07 20:41 49.38083 8.82216 17584 ft 371 kts
2026-05-07 20:41 49.40666 8.82564 18055 ft 374 kts
2026-05-07 20:42 49.43267 8.82919 18516 ft 376 kts
2026-05-07 20:42 49.45884 8.83280 18919 ft 379 kts
2026-05-07 20:42 49.48515 8.83643 19326 ft 381 kts
2026-05-07 20:42 49.51163 8.84006 19720 ft 383 kts
2026-05-07 20:43 49.53827 8.84372 20127 ft 385 kts
2026-05-07 20:43 49.56502 8.84741 20516 ft 387 kts
2026-05-07 20:43 49.59171 8.84513 20922 ft 384 kts 341°
2026-05-07 20:43 49.61556 8.82754 21312 ft 381 kts 324°
2026-05-07 20:44 49.63665 8.80298 21695 ft 381 kts 318°
2026-05-07 20:44 49.65705 8.77658 22048 ft 382 kts 319°
2026-05-07 20:44 49.67819 8.75160 22076 ft 383 kts 323°
2026-05-07 20:44 49.70043 8.72913 22076 ft 382 kts 325°
2026-05-07 20:45 49.72256 8.70662 22079 ft 381 kts 323°
2026-05-07 20:45 49.74314 8.68119 22087 ft 378 kts 313°
2026-05-07 20:45 49.76127 8.65169 22087 ft 378 kts 311°
2026-05-07 20:45 49.77905 8.62162 22083 ft 378 kts 311°
2026-05-07 20:46 49.79711 8.59202 22086 ft 378 kts 312°
2026-05-07 20:46 49.81533 8.56276 22086 ft 378 kts 312°
2026-05-07 20:46 49.83354 8.53318 22084 ft 378 kts 311°
2026-05-07 20:46 49.85159 8.50346 22085 ft 378 kts 311°
2026-05-07 20:47 49.86701 8.47089 22115 ft 375 kts 292°
2026-05-07 20:47 49.87518 8.43256 22093 ft 374 kts 283°
2026-05-07 20:47 49.88046 8.39312 22084 ft 374 kts 279°
2026-05-07 20:47 49.88523 8.35348 22090 ft 374 kts 281°
2026-05-07 20:48 49.89122 8.31422 22085 ft 374 kts 284°
2026-05-07 20:48 49.89778 8.27513 22084 ft 374 kts 283°
2026-05-07 20:48 49.90386 8.23586 22082 ft 375 kts 282°
2026-05-07 20:48 49.90958 8.19643 22087 ft 375 kts 282°
2026-05-07 20:49 49.91545 8.15695 22092 ft 375 kts 282°
2026-05-07 20:49 49.92148 8.11762 22088 ft 376 kts 282°
2026-05-07 20:49 49.92749 8.07809 22092 ft 376 kts 282°
2026-05-07 20:49 49.93338 8.03864 22095 ft 376 kts 282°
2026-05-07 20:50 49.93926 7.99912 22087 ft 376 kts 282°
2026-05-07 20:50 49.94529 7.95969 22088 ft 376 kts 284°
2026-05-07 20:50 49.95271 7.92079 22090 ft 376 kts 285°
2026-05-07 20:50 49.95996 7.88174 22083 ft 376 kts 285°
2026-05-07 20:51 49.96721 7.84275 22086 ft 376 kts 285°
2026-05-07 20:51 49.97460 7.80383 22084 ft 376 kts 285°
2026-05-07 20:51 49.98200 7.76487 22088 ft 376 kts 285°
2026-05-07 20:51 49.98961 7.72602 22088 ft 377 kts 287°
2026-05-07 20:52 49.99777 7.68727 22092 ft 377 kts 286°
2026-05-07 20:52 50.00544 7.64828 22085 ft 377 kts 286°
2026-05-07 20:52 50.01328 7.60944 22087 ft 377 kts 287°
2026-05-07 20:52 50.02128 7.57118 22087 ft 377 kts 287°
2026-05-07 20:53 50.02943 7.53187 22085 ft 377 kts 286°
2026-05-07 20:53 50.03733 7.49302 22084 ft 377 kts 286°
2026-05-07 20:53 50.04522 7.45412 22083 ft 377 kts 286°
2026-05-07 20:53 50.05315 7.41524 22083 ft 377 kts 286°
2026-05-07 20:54 50.06104 7.37631 22083 ft 377 kts 286°
2026-05-07 20:54 50.06885 7.33735 22083 ft 377 kts 286°
2026-05-07 20:54 50.07640 7.29834 22084 ft 377 kts 282°
2026-05-07 20:54 50.07994 7.25801 22080 ft 377 kts 274°
2026-05-07 20:55 50.08157 7.21795 22085 ft 376 kts 272°
2026-05-07 20:55 50.08285 7.17725 22085 ft 376 kts 273°
2026-05-07 20:55 50.08453 7.13656 22086 ft 377 kts 274°
2026-05-07 20:55 50.08648 7.09537 22081 ft 376 kts 274°
2026-05-07 20:56 50.08823 7.05472 22083 ft 376 kts 273°
2026-05-07 20:56 50.08982 7.01404 22084 ft 376 kts 273°
2026-05-07 20:56 50.09142 6.97411 22084 ft 376 kts 273°
2026-05-07 20:56 50.09311 6.93327 22084 ft 376 kts 273°
2026-05-07 20:57 50.09477 6.89262 22081 ft 376 kts 272°
2026-05-07 20:57 50.09479 6.85193 22066 ft 376 kts 268°
2026-05-07 20:57 50.09397 6.81122 22065 ft 376 kts 268°
2026-05-07 20:57 50.09306 6.77047 22065 ft 376 kts 268°
2026-05-07 20:58 50.09221 6.72980 22063 ft 376 kts 268°
2026-05-07 20:58 50.09141 6.68902 22062 ft 377 kts 268°
2026-05-07 20:58 50.09060 6.64831 22063 ft 376 kts 268°
2026-05-07 20:58 50.08973 6.60769 22065 ft 377 kts 268°
2026-05-07 20:59 50.08884 6.56681 22064 ft 377 kts 268°
2026-05-07 20:59 50.08796 6.52603 22077 ft 377 kts 268°
2026-05-07 20:59 50.08706 6.48526 22077 ft 377 kts 268°
2026-05-07 20:59 50.08615 6.44450 22078 ft 377 kts 268°
2026-05-07 21:00 50.08522 6.40372 22079 ft 377 kts 268°
2026-05-07 21:00 50.08427 6.36302 22079 ft 376 kts 268°
2026-05-07 21:00 50.08361 6.33553 22078 ft 375 kts 268°
2026-05-07 21:00 50.08263 6.29500 22077 ft 375 kts 267°
2026-05-07 21:01 50.08164 6.25463 22077 ft 375 kts 268°
2026-05-07 21:01 50.08063 6.21400 22080 ft 375 kts 267°
2026-05-07 21:01 50.07963 6.17340 22080 ft 375 kts 268°
2026-05-07 21:01 50.07865 6.13293 22081 ft 375 kts 268°
2026-05-07 21:02 50.07873 6.09286 22076 ft 375 kts 270°
2026-05-07 21:02 50.07895 6.05233 22077 ft 375 kts 270°
2026-05-07 21:02 50.08268 6.01243 22100 ft 376 kts 291°
2026-05-07 21:02 50.09691 5.97830 22101 ft 381 kts 315°
2026-05-07 21:03 50.11934 5.95655 22111 ft 386 kts 339°
2026-05-07 21:03 50.14556 5.94681 22091 ft 389 kts 349°
2026-05-07 21:03 50.17237 5.94098 22083 ft 389 kts 350°
2026-05-07 21:03 50.19909 5.93446 22089 ft 388 kts 347°
2026-05-07 21:04 50.22519 5.92396 22089 ft 387 kts 339°
2026-05-07 21:04 50.25019 5.90874 22084 ft 385 kts 334°
2026-05-07 21:04 50.27471 5.89190 22094 ft 385 kts 334°
2026-05-07 21:04 50.29962 5.87645 22088 ft 387 kts 338°
2026-05-07 21:05 50.32506 5.86272 22087 ft 387 kts 339°
2026-05-07 21:05 50.35050 5.84858 22086 ft 387 kts 337°
2026-05-07 21:05 50.37565 5.83355 22088 ft 386 kts 336°
2026-05-07 21:05 50.40075 5.81853 22088 ft 387 kts 337°
2026-05-07 21:06 50.42597 5.80392 22085 ft 387 kts 338°
2026-05-07 21:06 50.45125 5.78936 22084 ft 387 kts 338°
2026-05-07 21:06 50.47644 5.77461 22081 ft 387 kts 337°
2026-05-07 21:06 50.50163 5.75975 22078 ft 387 kts 337°
2026-05-07 21:07 50.52683 5.74496 22085 ft 387 kts 337°
2026-05-07 21:07 50.55203 5.73022 22085 ft 387 kts 337°
2026-05-07 21:07 50.57714 5.71500 22088 ft 385 kts 331°
2026-05-07 21:07 50.59836 5.69011 22102 ft 381 kts 311°
2026-05-07 21:08 50.61524 5.65816 22086 ft 379 kts 304°
2026-05-07 21:08 50.63052 5.62427 22111 ft 379 kts 303°
2026-05-07 21:08 50.64597 5.59065 22115 ft 379 kts 306°
2026-05-07 21:08 50.66271 5.55848 22111 ft 380 kts 308°
2026-05-07 21:09 50.67970 5.52665 22110 ft 380 kts 307°
2026-05-07 21:09 50.69616 5.49411 22113 ft 379 kts 306°
2026-05-07 21:09 50.71237 5.46127 22080 ft 380 kts 306°
2026-05-07 21:09 50.72882 5.42857 21545 ft 379 kts 307°
2026-05-07 21:10 50.74504 5.39684 20857 ft 365 kts 307°
2026-05-07 21:10 50.76049 5.36641 20168 ft 345 kts 307°
2026-05-07 21:10 50.77514 5.33718 19359 ft 333 kts 306°
2026-05-07 21:10 50.78926 5.30899 18593 ft 322 kts 307°
2026-05-07 21:11 50.80300 5.28167 17766 ft 313 kts 307°
2026-05-07 21:11 50.81641 5.25501 16931 ft 306 kts 307°
2026-05-07 21:11 50.84233 5.20323 15340 ft 295 kts 306°
2026-05-07 21:12 50.85464 5.17866 14584 ft 280 kts 306°
2026-05-07 21:12 50.86659 5.15481 13787 ft 268 kts 306°
2026-05-07 21:12 50.87734 5.13201 12943 ft 256 kts 295°
2026-05-07 21:12 50.88496 5.10719 12153 ft 248 kts 293°
2026-05-07 21:13 50.89227 5.08237 11339 ft 243 kts 294°
2026-05-07 21:13 50.89941 5.05830 10575 ft 240 kts 294°
2026-05-07 21:13 50.90639 5.03488 9823 ft 237 kts 294°
2026-05-07 21:13 50.91339 5.01137 9007 ft 235 kts 294°
2026-05-07 21:14 50.92030 4.98812 8212 ft 232 kts 294°
2026-05-07 21:14 50.92714 4.96507 7452 ft 230 kts 294°
2026-05-07 21:14 50.93391 4.94224 6698 ft 228 kts 294°
2026-05-07 21:14 50.94061 4.91962 5922 ft 226 kts 295°
2026-05-07 21:15 50.94730 4.89701 5147 ft 226 kts 295°
2026-05-07 21:15 50.95399 4.87439 4361 ft 226 kts 295°
2026-05-07 21:15 50.96065 4.85187 3604 ft 225 kts 295°
2026-05-07 21:15 50.96724 4.82952 2837 ft 223 kts 295°
2026-05-07 21:16 50.97377 4.80737 2186 ft 217 kts 296°
2026-05-07 21:16 50.97995 4.78644 2007 ft 205 kts 296°
2026-05-07 21:16 50.98545 4.76608 2148 ft 192 kts 295°
2026-05-07 21:16 50.99221 4.74937 2391 ft 175 kts 310°
2026-05-07 21:17 50.99858 4.73286 2362 ft 174 kts 280°
2026-05-07 21:17 50.99466 4.71544 2121 ft 179 kts 232°
2026-05-07 21:17 50.98648 4.70007 2010 ft 182 kts 228°
2026-05-07 21:17 50.97853 4.68427 1933 ft 185 kts 231°
2026-05-07 21:18 50.97128 4.66776 1953 ft 180 kts 236°
2026-05-07 21:18 50.96389 4.65188 1849 ft 181 kts 218°
2026-05-07 21:18 50.95502 4.63844 1918 ft 173 kts 227°
2026-05-07 21:18 50.94764 4.62380 1967 ft 170 kts 235°
2026-05-07 21:19 50.94180 4.60737 1842 ft 178 kts 241°
2026-05-07 21:19 50.93643 4.58921 1373 ft 181 kts 243°
2026-05-07 21:19 50.93135 4.57202 894 ft 163 kts 246°
2026-05-07 21:19 50.92757 4.55664 765 ft 146 kts 251°
2026-05-07 21:20 50.92397 4.54172 710 ft 139 kts 243°
2026-05-07 21:20 50.91990 4.52821 417 ft 135 kts 243°
2026-05-07 21:20 50.91596 4.51493 303 ft 132 kts 248°
2026-05-07 21:20 50.91211 4.50159 217 ft 134 kts 241°
2026-05-07 21:21 50.90827 4.48851 118 ft 123 kts 245°
2026-05-07 21:21 50.90525 4.47772 120 ft 91 kts 244°
2026-05-07 21:21 50.90309 4.47022 125 ft 52 kts 245°
2026-05-07 21:21 50.90231 4.46755 128 ft 7 kts 246°
2026-05-07 21:22 50.90209 4.46676 128 ft 10 kts 246°
2026-05-07 21:22 50.90166 4.46525 133 ft 20 kts 245°
2026-05-07 21:22 50.90097 4.46289 136 ft 27 kts 245°
2026-05-07 21:22 50.90020 4.46024 139 ft 25 kts 246°
2026-05-07 21:23 50.89934 4.45748 141 ft 29 kts 233°
2026-05-07 21:23 50.89801 4.45680 142 ft 8 kts 162°
2026-05-07 21:23 50.89798 4.45682 142 ft 0 kts 161°
2026-05-07 21:24 50.89778 4.45700 142 ft 10 kts 138°
2026-05-07 21:24 50.89780 4.45805 142 ft 9 kts 55°
2026-05-07 21:25 50.89816 4.45915 141 ft 13 kts 66°
2026-05-07 21:25 50.89854 4.46055 140 ft 15 kts 66°
2026-05-07 21:25 50.89900 4.46217 138 ft 17 kts 65°
2026-05-07 21:25 50.89953 4.46402 135 ft 19 kts 66°
2026-05-07 21:26 50.90012 4.46606 133 ft 21 kts 65°
2026-05-07 21:26 50.90075 4.46828 130 ft 23 kts 66°
2026-05-07 21:26 50.90139 4.47064 126 ft 23 kts 72°
2026-05-07 21:26 50.90141 4.47318 123 ft 23 kts 70°
2026-05-07 21:27 50.90207 4.47554 119 ft 24 kts 65°
2026-05-07 21:27 50.90277 4.47798 119 ft 24 kts 65°
2026-05-07 21:27 50.90348 4.48042 118 ft 24 kts 65°
2026-05-07 21:27 50.90418 4.48287 119 ft 25 kts 65°
2026-05-07 21:28 50.90487 4.48525 118 ft 23 kts 65°
2026-05-07 21:28 50.90521 4.48686 119 ft 3 kts 120°
2026-05-07 21:28 50.90499 4.48700 118 ft 4 kts 166°
2026-05-07 21:28 50.90471 4.48715 118 ft 5 kts 160°
2026-05-07 21:29 50.90452 4.48727 118 ft 0 kts 154°